Home   Weather   Odder Kommune   Past weeks
Flag for Denmark

Past Weather in Odder Kommune, Denmark — Yesterday and Last 2 Weeks

Now
66 °F

Rain. Partly sunny.


Feels Like: 66 °F
Forecast: 71 / 56 °F
Wind: 2 mph from South

Location: Tirstrup

Current Time: Jul 20, 2019 at 10:15:11 pm

Latest Report: Jul 20, 2019 at 9:20 pm


Visibility: 4 mi

Pressure: 29.83 "Hg

Humidity: 88%

Dew Point: 63 °F

Location of Odder KommuneLocation

Past Weather in Odder Kommune — Graph

°F

Odder Kommune Temperature Yesterday

Maximum temperature yesterday: 72 °F (at 10:50 am)
Minimum temperature yesterday: 61 °F (at 11:20 pm)
Average temperature yesterday: 66 °F

High & Low Weather Summary for the Past Weeks

 TemperatureHumidityPressure
High77 °F (Jul 20, 4:20 pm)100% (Jul 6, 5:20 am)30.04 "Hg (Jul 6, 5:20 am)
Low46 °F (Jul 11, 4:50 am)41% (Jul 10, 2:20 pm)29.53 "Hg (Jul 6, 7:20 pm)
Average62 °F78%29.89 "Hg
* Reported Jul 5 8:20 pm — Jul 20 8:50 pm, Odder Kommune. Weather by CustomWeather, © 2019

Note: Actual official high and low records may vary slightly from our data, if they occured in-between our weather recording intervals... More about our weather records

Advertising

Odder Kommune Weather History for the Previous 24 Hours

Scroll right to see more
 ConditionsComfort  
Time TempWeatherWind HumidityBarometerVisibility
8:50 pm
Sat, Jul 20
66 °FSprinkles. Partly sunny.1 mph88%29.83 "HgN/A
8:20 pm68 °FSprinkles. Partly sunny.7 mph78%29.83 "HgN/A
7:50 pm72 °FPartly sunny.12 mph65%29.83 "HgN/A
7:20 pm72 °FPartly sunny.10 mph61%29.83 "HgN/A
6:50 pm72 °FBroken clouds.10 mph65%29.83 "HgN/A
6:20 pm73 °FBroken clouds.9 mph65%29.83 "HgN/A
5:50 pm73 °FPartly sunny.9 mph65%29.83 "HgN/A
5:20 pm75 °FBroken clouds.12 mph57%29.86 "HgN/A
4:50 pm77 °FPartly sunny.9 mph51%29.86 "HgN/A
4:20 pm77 °FWarm.10 mph54%29.86 "HgN/A
3:50 pm75 °FMild.10 mph57%29.86 "HgN/A
3:20 pm75 °FMild.12 mph54%29.89 "HgN/A
2:50 pm75 °FMild.10 mph50%29.89 "HgN/A
1:50 pm73 °FPassing clouds.12 mph53%29.89 "HgN/A
1:20 pm73 °FScattered clouds.10 mph53%29.89 "HgN/A
12:50 pm73 °FMild.10 mph53%29.92 "HgN/A
12:20 pm72 °FScattered clouds.10 mph61%29.92 "HgN/A
11:50 am72 °FPartly sunny.9 mph57%29.92 "HgN/A
11:20 am70 °FScattered clouds.9 mph64%29.92 "HgN/A
10:50 am68 °FPartly sunny.8 mph69%29.92 "HgN/A
10:20 am68 °FOvercast.7 mph69%29.92 "HgN/A
9:50 am66 °FPartly sunny.7 mph78%29.95 "HgN/A
9:20 am66 °FPartly sunny.8 mph83%29.92 "HgN/A
8:50 am64 °FPartly sunny.6 mph88%29.92 "HgN/A
8:20 am64 °FPartly sunny.7 mph94%29.92 "HgN/A
7:50 am64 °FPartly sunny.3 mph94%29.92 "HgN/A
7:20 am63 °FBroken clouds.5 mph100%29.92 "HgN/A
6:50 am59 °FPartly sunny.2 mph100%29.92 "Hg6 mi
6:20 am57 °FScattered clouds.3 mph94%29.92 "HgN/A
5:50 am55 °FPassing clouds.2 mph94%29.95 "HgN/A
5:20 am54 °FPassing clouds.No wind100%29.95 "Hg4 mi
4:50 am55 °FFog.2 mph100%29.95 "Hg0 mi
4:20 am55 °FPassing clouds.3 mph100%29.95 "HgN/A
3:50 am54 °FCool.3 mph94%29.95 "Hg4 mi
3:20 am54 °FPassing clouds.1 mph94%29.95 "HgN/A
2:50 am55 °FFog.1 mph94%29.95 "Hg2 mi
2:20 am55 °FFog.No wind94%29.95 "Hg1 mi
1:50 am55 °FFog.No wind94%29.95 "Hg1 mi
1:20 am57 °FPassing clouds.No wind88%29.95 "HgN/A
12:50 am57 °FPassing clouds.1 mph94%29.95 "HgN/A
12:20 am59 °FPassing clouds.2 mph88%29.95 "Hg3 mi
11:50 pm
Fri, Jul 19
61 °FPassing clouds.3 mph83%29.95 "HgN/A
11:20 pm61 °FPassing clouds.1 mph83%29.95 "HgN/A
10:50 pm63 °FPassing clouds.1 mph83%29.95 "HgN/A
10:20 pm63 °FPassing clouds.1 mph83%29.95 "HgN/A
Weather by CustomWeather, © 2019

See weather overview